FW7622 Weather Reports


Display with metric or nautical units.
time (UTC)temp
F
wind
direction
speed
MPH
gust
MPH
rain 1hr
in
rain 24hr
in
rain mn
in
humidity
%
barometer
mb
20260905064605 67 160 0.0 0.0 0.00 0.00 0.00 99 1015.0
20260905064101 67 171 0.0 0.0 0.00 0.00 0.00 99 1015.0
20260905063559 67 185 0.0 0.0 0.00 0.00 0.00 99 1015.0
20260905063056 67 185 0.0 0.0 0.00 0.00 0.00 99 1015.3
20260905062551 66 184 0.0 0.0 0.00 0.00 0.00 99 1015.0
20260905062050 66 172 0.0 0.0 0.00 0.00 0.00 99 1015.0
20260905061546 66 171 0.0 0.0 0.00 0.00 0.00 99 1015.0
20260905061044 66 179 0.0 0.0 0.00 0.00 0.00 99 1015.0
20260905060541 66 179 0.0 0.0 0.00 0.00 0.00 99 1015.0
20260905060037 66 176 0.0 0.0 0.00 0.00 0.00 99 1015.0
20260905055535 65 176 0.0 0.0 0.00 0.00 0.00 99 1015.0
20260905055030 65 176 0.0 0.0 0.00 0.00 0.00 99 1015.0
20260905054526 65 176 0.0 0.0 0.00 0.00 0.00 99 1015.0
20260905054021 65 176 0.0 0.0 0.00 0.00 0.00 99 1015.0
20260905053520 65 176 0.0 0.0 0.00 0.00 0.00 99 1014.5
20260905053017 65 175 0.0 0.0 0.00 0.00 0.00 99 1014.5
20260905052515 66 175 0.0 0.0 0.00 0.00 0.00 99 1014.5
20260905052010 66 176 0.0 0.0 0.00 0.00 0.00 99 1014.5
20260905051506 66 176 0.0 0.0 0.00 0.00 0.00 99 1014.2
20260905051003 67 176 0.0 0.0 0.00 0.00 0.00 99 1014.5
20260905050458 67 178 0.0 0.0 0.00 0.00 0.00 99 1014.5
20260905045955 66 174 0.0 0.0 0.00 0.00 0.00 99 1014.2
20260905045449 66 173 0.0 0.0 0.00 0.00 0.00 99 1014.2
20260905044944 67 174 0.0 0.0 0.00 0.00 0.00 99 1014.2
20260905044439 67 170 0.0 0.0 0.00 0.00 0.00 99 1014.2
20260905043939 67 171 0.0 0.0 0.00 0.00 0.00 99 1014.2
20260905043438 67 171 0.0 0.0 0.00 0.00 0.00 99 1014.2
20260905042932 67 171 0.0 0.0 0.00 0.00 0.00 99 1014.2
20260905042427 67 171 0.0 0.0 0.00 0.00 0.00 99 1014.2
20260905041922 67 171 0.0 0.0 0.00 0.00 0.00 99 1014.2
20260905041418 68 171 0.0 0.0 0.00 0.00 0.00 99 1014.2
20260905040913 68 172 0.0 0.0 0.00 0.00 0.00 99 1014.2
20260905040413 68 172 0.0 0.0 0.00 0.00 0.00 99 1014.2
20260905035912 68 172 0.0 0.0 0.00 0.00 0.00 99 1014.5
20260905035407 68 172 0.0 0.0 0.00 0.00 0.00 99 1014.2
20260905034904 68 179 0.0 0.0 0.00 0.00 0.00 99 1014.2
20260905034359 68 178 0.0 0.0 0.00 0.00 0.00 99 1014.2
20260905033857 69 179 0.0 0.0 0.00 0.00 0.00 99 1014.2
20260905033353 69 170 0.0 0.0 0.00 0.00 0.00 99 1014.2
20260905032852 69 181 0.0 0.0 0.00 0.00 0.00 99 1014.5
20260905032348 69 153 0.0 0.0 0.00 0.00 0.00 99 1014.2
20260905031843 69 174 0.0 0.0 0.00 0.00 0.00 99 1014.5
20260905031339 70 164 0.0 0.0 0.00 0.00 0.00 99 1014.5
20260905030834 70 145 0.0 0.0 0.00 0.00 0.00 99 1014.5
20260905030330 70 173 0.0 0.0 0.00 0.00 0.00 99 1014.5
20260905025829 70 175 0.0 0.0 0.00 0.00 0.00 99 1014.5
20260905025324 71 181 1.0 1.0 0.00 0.00 0.00 99 1014.5
20260905024821 71 164 0.0 1.0 0.00 0.00 0.00 99 1014.5
20260905024315 71 171 0.0 0.0 0.00 0.00 0.00 99 1014.2
20260905023811 71 139 2.0 2.0 0.00 0.00 0.00 99 1014.5
20260905023306 71 177 0.0 0.0 0.00 0.00 0.00 99 1014.2
20260905022805 72 175 0.0 0.0 0.00 0.00 0.00 99 1014.2
20260905022300 72 91 2.0 5.0 0.00 0.00 0.00 98 1014.2
20260905021755 72 37 1.0 2.0 0.00 0.00 0.00 98 1014.2
20260905021250 72 45 2.0 3.0 0.00 0.00 0.00 98 1013.9
20260905020750 72 172 0.0 0.0 0.00 0.00 0.00 98 1014.2
20260905020245 73 134 0.0 0.0 0.00 0.00 0.00 98 1013.9
20260905015744 73 127 1.0 1.0 0.00 0.00 0.00 97 1013.9
20260905015238 73 87 0.0 1.0 0.00 0.00 0.00 97 1013.9
20260905014731 73 147 0.0 0.0 0.00 0.00 0.00 97 1013.9
20260905014227 73 185 0.0 1.0 0.00 0.00 0.00 96 1013.9
20260905013723 73 161 1.0 1.0 0.00 0.00 0.00 96 1013.9
20260905013219 73 122 1.0 1.0 0.00 0.00 0.00 96 1013.9
20260905012714 73 182 0.0 0.0 0.00 0.00 0.00 96 1013.5
20260905012209 73 177 0.0 0.0 0.00 0.00 0.00 96 1013.5
20260905011706 74 154 0.0 1.0 0.00 0.00 0.00 96 1013.5
20260905011202 74 179 0.0 0.0 0.00 0.00 0.00 95 1013.2
20260905010701 75 166 0.0 0.0 0.00 0.00 0.00 94 1013.2
20260905010157 75 170 0.0 0.0 0.00 0.00 0.00 94 1013.2
20260905005653 75 168 0.0 0.0 0.00 0.00 0.00 93 1013.2
20260905005149 76 11 2.0 2.0 0.00 0.00 0.00 92 1013.2
20260905004643 76 118 2.0 3.0 0.00 0.00 0.00 92 1013.2
20260905004138 77 135 1.0 1.0 0.00 0.00 0.00 91 1013.2
20260905003634 77 24 1.0 3.0 0.00 0.00 0.00 90 1013.2
20260905003130 77 177 1.0 2.0 0.00 0.00 0.00 90 1013.2
20260905002625 77 67 2.0 3.0 0.00 0.00 0.00 90 1012.9
20260905002120 78 214 0.0 1.0 0.00 0.00 0.00 90 1012.5
20260905001615 78 173 0.0 0.0 0.00 0.00 0.00 90 1012.9
20260905001114 78 135 1.0 1.0 0.00 0.00 0.00 90 1012.5
20260905000610 79 140 1.0 1.0 0.00 0.00 0.00 90 1012.9
20260905000106 79 114 2.0 2.0 0.00 0.00 0.00 89 1012.5
20260904235606 80 176 0.0 0.0 0.00 0.00 0.00 89 1012.5
20260904235105 80 140 1.0 1.0 0.00 0.00 0.00 87 1012.2
20260904234600 80 179 0.0 0.0 0.00 0.00 0.00 88 1012.5
20260904234056 80 190 0.0 0.0 0.00 0.00 0.00 87 1012.5
20260904233556 81 176 0.0 0.0 0.00 0.00 0.00 87 1012.5
20260904233052 81 173 0.0 0.0 0.00 0.00 0.00 87 1012.2
20260904232549 81 188 0.0 0.0 0.00 0.00 0.00 86 1012.2
20260904232045 81 184 0.0 1.0 0.00 0.00 0.00 85 1012.5
20260904231540 82 107 0.0 1.0 0.00 0.00 0.00 84 1012.5
20260904231036 82 326 2.0 2.0 0.00 0.00 0.00 86 1012.2
20260904230534 82 176 0.0 0.0 0.00 0.00 0.00 87 1012.2
20260904230030 82 125 1.0 1.0 0.00 0.00 0.00 84 1012.2
20260904225528 82 231 0.0 1.0 0.00 0.00 0.00 85 1012.2
20260904225027 82 167 0.0 0.0 0.00 0.00 0.00 84 1012.2
20260904224523 82 182 2.0 2.0 0.00 0.00 0.00 84 1011.8
20260904224022 83 194 0.0 1.0 0.00 0.00 0.00 83 1012.2
20260904223522 84 254 0.0 1.0 0.00 0.00 0.00 85 1012.2
20260904223018 84 191 0.0 1.0 0.00 0.00 0.00 85 1012.2
20260904222513 84 82 0.0 1.0 0.00 0.00 0.00 85 1012.2
20260904222008 84 198 1.0 1.0 0.00 0.00 0.00 84 1011.8
20260904221502 84 211 0.0 1.0 0.00 0.00 0.00 85 1012.2
20260904220957 84 10 2.0 2.0 0.00 0.00 0.00 86 1012.2
20260904220457 84 181 0.0 1.0 0.00 0.00 0.00 86 1011.8
20260904215952 85 161 0.0 1.0 0.00 0.00 0.00 84 1011.8
20260904215448 85 0 2.0 3.0 0.00 0.00 0.00 85 1011.8
20260904214943 84 253 1.0 1.0 0.00 0.00 0.00 85 1011.8
20260904214438 86 32 2.0 3.0 0.00 0.00 0.00 85 1011.8
20260904213933 86 182 1.0 1.0 0.00 0.00 0.00 86 1011.8
20260904213426 84 295 2.0 2.0 0.00 0.00 0.00 86 1011.8
20260904212923 84 44 1.0 2.0 0.00 0.00 0.00 86 1011.8
20260904212422 84 200 3.0 5.0 0.00 0.00 0.00 87 1011.8
20260904211918 84 162 1.0 1.0 0.00 0.00 0.00 88 1011.8
20260904211413 84 82 3.0 3.0 0.00 0.00 0.00 87 1011.8
20260904210908 84 129 3.0 3.0 0.00 0.00 0.00 88 1011.8
20260904210407 83 20 2.0 3.0 0.00 0.00 0.00 88 1011.8
20260904205903 83 154 2.0 2.0 0.00 0.00 0.00 89 1011.5
20260904205358 83 177 0.0 0.0 0.00 0.00 0.00 90 1011.8
20260904204855 83 339 3.0 5.0 0.00 0.00 0.00 89 1011.5
20260904204351 83 135 0.0 1.0 0.00 0.00 0.00 90 1011.8
20260904203847 83 166 1.0 1.0 0.00 0.00 0.00 90 1011.5
20260904203343 82 35 3.0 5.0 0.00 0.00 0.00 90 1011.8
20260904202838 81 149 0.0 1.0 0.00 0.00 0.00 91 1011.5
20260904202335 82 235 0.0 1.0 0.00 0.00 0.00 92 1011.5
20260904201830 81 206 1.0 1.0 0.00 0.00 0.00 92 1011.8
20260904201330 81 264 0.0 1.0 0.00 0.00 0.00 92 1011.8
20260904200825 81 181 0.0 1.0 0.00 0.00 0.00 93 1011.8
20260904200324 80 172 0.0 0.0 0.00 0.00 0.00 95 1012.2
20260904195819 80 180 0.0 0.0 0.00 0.00 0.00 94 1011.8
20260904195317 80 192 0.0 0.0 0.00 0.00 0.00 94 1012.2
20260904194812 80 152 0.0 0.0 0.00 0.00 0.00 94 1012.2
20260904194312 79 174 0.0 0.0 0.00 0.00 0.00 95 1012.2
20260904193807 80 178 0.0 0.0 0.00 0.00 0.00 96 1012.2
20260904193302 79 170 0.0 0.0 0.00 0.00 0.00 95 1012.2
20260904192757 79 159 0.0 1.0 0.00 0.00 0.00 95 1012.2
20260904192253 80 186 0.0 0.0 0.00 0.00 0.00 94 1012.2
20260904191749 79 172 0.0 0.0 0.00 0.00 0.00 95 1012.2
20260904191246 80 124 1.0 1.0 0.00 0.00 0.00 94 1012.2
20260904190742 79 199 0.0 0.0 0.00 0.00 0.00 95 1012.2
20260904190237 80 186 0.0 0.0 0.00 0.00 0.00 94 1012.5
20260904185733 79 135 0.0 0.0 0.00 0.00 0.00 95 1012.2
20260904185228 79 163 0.0 0.0 0.00 0.00 0.00 95 1012.2
20260904184726 79 184 0.0 0.0 0.00 0.00 0.00 95 1012.2
20260904184223 79 185 0.0 0.0 0.00 0.00 0.00 95 1012.2
20260904183718 79 96 0.0 0.0 0.00 0.00 0.00 95 1012.2
20260904183213 79 160 1.0 2.0 0.00 0.00 0.00 95 1012.2
20260904182708 79 161 1.0 1.0 0.00 0.00 0.00 96 1012.2
20260904182203 78 119 0.0 1.0 0.00 0.00 0.00 96 1012.2
20260904181658 78 175 0.0 0.0 0.00 0.00 0.00 97 1012.2
20260904181158 78 181 0.0 0.0 0.00 0.00 0.00 97 1012.2
20260904180654 78 99 1.0 1.0 0.00 0.00 0.00 98 1011.8
20260904180149 78 263 1.0 1.0 0.00 0.00 0.00 98 1011.8
20260904175648 78 154 0.0 1.0 0.00 0.00 0.00 98 1011.8
20260904175146 78 125 1.0 1.0 0.00 0.00 0.00 97 1011.8
20260904174641 79 198 0.0 0.0 0.00 0.00 0.00 97 1011.8
20260904174138 79 177 0.0 0.0 0.00 0.00 0.00 98 1011.8
20260904173633 78 169 0.0 0.0 0.00 0.00 0.00 98 1011.8
20260904173128 78 179 0.0 0.0 0.00 0.00 0.00 98 1011.8
20260904172625 78 182 0.0 0.0 0.00 0.00 0.00 98 1011.8
20260904172124 78 176 0.0 0.0 0.00 0.00 0.00 98 1012.2
20260904171619 78 219 0.0 0.0 0.00 0.00 0.00 98 1012.2
20260904171114 78 201 1.0 2.0 0.00 0.00 0.00 98 1011.8
20260904170610 78 211 0.0 0.0 0.00 0.00 0.00 98 1012.2
20260904170106 78 114 2.0 2.0 0.00 0.00 0.00 98 1011.8
20260904165605 78 132 0.0 1.0 0.00 0.00 0.00 98 1012.2
20260904165104 78 184 0.0 0.0 0.00 0.00 0.00 98 1012.2
20260904164559 77 182 0.0 0.0 0.00 0.00 0.00 98 1011.8
20260904164055 78 186 0.0 0.0 0.00 0.00 0.00 99 1012.2
20260904163555 77 134 1.0 1.0 0.00 0.00 0.00 99 1012.2
20260904163050 77 181 0.0 1.0 0.00 0.00 0.00 99 1012.2
20260904162544 77 176 0.0 0.0 0.00 0.00 0.00 99 1011.8
20260904162040 77 284 0.0 1.0 0.00 0.00 0.00 99 1012.2
20260904161534 77 181 0.0 1.0 0.00 0.00 0.00 99 1012.2
20260904161030 77 164 1.0 1.0 0.00 0.00 0.00 99 1011.8
20260904160525 77 186 0.0 0.0 0.00 0.00 0.00 99 1011.5
20260904160022 77 165 0.0 0.0 0.00 0.00 0.00 99 1011.5
20260904155520 77 182 0.0 0.0 0.00 0.00 0.00 99 1011.1
20260904155020 76 181 0.0 0.0 0.00 0.00 0.00 99 1011.5
20260904154514 76 125 1.0 1.0 0.00 0.00 0.00 99 1011.5
20260904154009 76 189 0.0 0.0 0.00 0.00 0.00 99 1011.5
20260904153508 75 155 0.0 0.0 0.00 0.00 0.00 99 1011.1
20260904153005 75 186 1.0 1.0 0.00 0.00 0.00 99 1011.1
20260904152501 74 165 1.0 1.0 0.00 0.00 0.00 99 1011.1
20260904151955 74 170 0.0 0.0 0.00 0.00 0.00 99 1011.5
20260904151450 74 160 0.0 1.0 0.00 0.00 0.00 99 1011.5
20260904150945 74 162 0.0 1.0 0.00 0.00 0.00 99 1011.5
20260904150440 73 173 0.0 0.0 0.00 0.00 0.00 99 1011.5
20260904145938 73 177 0.0 0.0 0.00 0.00 0.00 99 1011.5
20260904145434 73 160 1.0 1.0 0.00 0.00 0.00 99 1011.5
20260904144929 73 175 0.0 0.0 0.00 0.00 0.00 99 1011.1
20260904144425 73 168 1.0 1.0 0.00 0.00 0.00 99 1011.1
20260904143920 72 177 0.0 0.0 0.00 0.00 0.00 99 1011.5
20260904143417 72 166 0.0 0.0 0.00 0.00 0.00 99 1011.1
20260904142913 72 167 0.0 0.0 0.00 0.00 0.00 99 1011.1
20260904142409 72 169 0.0 0.0 0.00 0.00 0.00 99 1011.5
20260904141903 72 157 1.0 1.0 0.00 0.00 0.00 99 1011.1
20260904141358 71 182 0.0 0.0 0.00 0.00 0.00 99 1011.5
20260904140855 71 182 0.0 0.0 0.00 0.00 0.00 99 1011.1
20260904140349 71 172 0.0 1.0 0.00 0.00 0.00 99 1011.1
20260904135848 71 166 1.0 1.0 0.00 0.00 0.00 99 1010.7
20260904135343 71 176 0.0 0.0 0.00 0.00 0.00 99 1011.1
20260904134839 71 176 0.0 0.0 0.00 0.00 0.00 99 1011.5
20260904134334 71 187 0.0 0.0 0.00 0.00 0.00 99 1011.5
20260904133834 71 158 0.0 0.0 0.00 0.00 0.00 99 1011.1
20260904133329 71 139 0.0 0.0 0.00 0.00 0.00 99 1011.1
20260904132829 71 175 0.0 0.0 0.00 0.00 0.00 99 1011.1
20260904132324 71 174 0.0 0.0 0.00 0.00 0.00 99 1011.1
20260904131824 70 165 0.0 1.0 0.00 0.00 0.00 99 1011.1
20260904131320 71 173 0.0 0.0 0.00 0.00 0.00 99 1011.1
20260904130820 70 179 0.0 0.0 0.00 0.00 0.00 99 1010.7
20260904130319 70 173 0.0 0.0 0.00 0.00 0.00 99 1010.7
20260904125815 70 184 0.0 1.0 0.00 0.00 0.00 99 1011.1
20260904125311 70 146 2.0 3.0 0.00 0.00 0.00 99 1010.7
20260904124810 70 151 0.0 0.0 0.00 0.00 0.00 99 1011.1
20260904124307 70 147 0.0 0.0 0.00 0.00 0.00 99 1010.7
20260904123801 70 127 1.0 2.0 0.00 0.00 0.00 99 1010.4
20260904123256 70 168 0.0 0.0 0.00 0.00 0.00 99 1010.4
20260904122751 70 174 0.0 1.0 0.00 0.00 0.00 99 1010.4
20260904122251 70 182 0.0 0.0 0.00 0.00 0.00 99 1010.7
20260904121746 70 146 0.0 0.0 0.00 0.00 0.00 99 1010.4
20260904121243 70 170 0.0 0.0 0.00 0.00 0.00 99 1010.4
20260904120739 70 140 0.0 0.0 0.00 0.00 0.00 99 1010.4
20260904120234 70 124 1.0 1.0 0.00 0.00 0.00 99 1010.4
20260904115729 70 169 0.0 0.0 0.00 0.00 0.00 99 1010.4
20260904115224 70 175 0.0 0.0 0.00 0.00 0.00 99 1010.4
20260904114719 70 179 0.0 0.0 0.00 0.00 0.00 99 1010.4
20260904114219 70 172 0.0 0.0 0.00 0.00 0.00 99 1010.0
20260904113714 70 174 0.0 0.0 0.00 0.00 0.00 99 1010.4
20260904113213 70 174 0.0 0.0 0.00 0.00 0.00 99 1010.4
20260904112708 70 163 0.0 0.0 0.00 0.00 0.00 99 1010.0
20260904112203 70 176 0.0 0.0 0.00 0.00 0.00 99 1010.0
20260904111659 70 160 0.0 1.0 0.00 0.00 0.00 99 1010.0
20260904111154 70 174 0.0 0.0 0.00 0.00 0.00 99 1010.0
20260904110650 70 189 0.0 0.0 0.00 0.00 0.00 99 1010.0
20260904110149 70 151 0.0 1.0 0.00 0.00 0.00 99 1010.0
20260904105644 70 164 0.0 0.0 0.00 0.00 0.00 99 1010.4
20260904105139 70 176 0.0 0.0 0.00 0.00 0.00 99 1010.0
20260904104634 70 173 0.0 0.0 0.00 0.00 0.00 99 1010.0
20260904104130 70 182 0.0 0.0 0.00 0.00 0.00 99 1010.0
20260904103626 70 182 0.0 0.0 0.00 0.00 0.00 99 1009.7
20260904103121 70 180 1.0 1.0 0.00 0.00 0.00 99 1010.0
20260904102617 70 144 0.0 1.0 0.00 0.00 0.00 99 1010.0
20260904102112 70 189 0.0 0.0 0.00 0.00 0.00 99 1009.7
20260904101609 69 169 0.0 0.0 0.00 0.00 0.00 99 1010.0
20260904101104 68 66 1.0 2.0 0.00 0.00 0.00 99 1010.0
20260904100600 68 185 0.0 0.0 0.00 0.00 0.00 99 1009.7
20260904100055 68 183 0.0 0.0 0.00 0.00 0.00 99 1009.4
20260904095549 68 183 0.0 0.0 0.00 0.00 0.00 99 1009.7
20260904095044 68 178 0.0 0.0 0.00 0.00 0.00 99 1010.0
20260904094539 68 178 0.0 0.0 0.00 0.00 0.00 99 1010.0
20260904094035 68 170 0.0 0.0 0.00 0.00 0.00 99 1009.7
20260904093532 68 180 0.0 0.0 0.00 0.00 0.00 99 1010.0
20260904093031 68 180 0.0 0.0 0.00 0.00 0.00 99 1009.7
20260904092527 68 180 0.0 0.0 0.00 0.00 0.00 99 1010.0
20260904092024 68 180 0.0 0.0 0.00 0.00 0.00 99 1010.0
20260904091520 68 179 0.0 0.0 0.00 0.00 0.00 99 1009.7
20260904091019 68 166 0.0 0.0 0.00 0.00 0.00 99 1009.7
20260904090514 69 166 0.0 0.0 0.00 0.00 0.00 99 1010.0
20260904090010 68 166 0.0 0.0 0.00 0.00 0.00 99 1009.7
20260904085505 68 166 0.0 0.0 0.00 0.00 0.00 99 1009.7
20260904085004 68 166 0.0 0.0 0.00 0.00 0.00 99 1009.7
20260904084500 68 167 0.0 0.0 0.00 0.00 0.00 99 1009.7
20260904083955 68 164 0.0 0.0 0.00 0.00 0.00 99 1009.4
20260904083452 68 167 0.0 0.0 0.00 0.00 0.00 99 1009.4
20260904082947 68 171 0.0 0.0 0.00 0.00 0.00 99 1009.4
20260904082442 68 171 0.0 0.0 0.00 0.00 0.00 99 1009.4
20260904081937 68 174 0.0 0.0 0.00 0.00 0.00 99 1009.4
20260904081433 68 174 0.0 0.0 0.00 0.00 0.00 99 1009.7
20260904080929 68 174 0.0 0.0 0.00 0.00 0.00 99 1009.7
20260904080424 68 174 0.0 0.0 0.00 0.00 0.00 99 1009.4
20260904075920 68 174 0.0 0.0 0.00 0.00 0.00 99 1009.4
20260904075415 68 175 0.0 0.0 0.00 0.00 0.00 99 1009.7
20260904074913 68 175 0.0 0.0 0.00 0.00 0.00 99 1009.4
20260904074409 68 175 0.0 0.0 0.00 0.00 0.00 99 1009.4
20260904073904 68 174 0.0 0.0 0.00 0.00 0.00 99 1009.4
20260904073400 68 175 0.0 0.0 0.00 0.00 0.00 99 1009.4
20260904072855 69 180 0.0 0.0 0.00 0.00 0.00 99 1009.7
20260904072350 69 172 0.0 0.0 0.00 0.00 0.00 99 1009.7
20260904071846 69 172 0.0 0.0 0.00 0.00 0.00 99 1009.4
20260904071341 69 161 0.0 0.0 0.00 0.00 0.00 99 1009.4
20260904070836 69 164 0.0 0.0 0.00 0.00 0.00 99 1009.7
20260904070334 69 178 0.0 0.0 0.00 0.00 0.00 99 1009.7
20260904065829 69 179 0.0 0.0 0.00 0.00 0.00 99 1009.7
20260904065326 69 179 0.0 0.0 0.00 0.00 0.00 99 1009.7